Regional Weather Roundup
Issued by NWS

Home | Current Version | Previous Version | Text Only | Print | Product List | Glossary On
Versions: 1 2 3 4 5 6 7 8 9 10 11 12 13 14 15 16 17 18 19 20 21 22 23 24 25 26 27 28 29 30 31 32 33 34 35 36 37 38 39 40 41 42 43 44 45 46 47 48 49 50
610
ASUS44 KLIX 182005
RWRLA
LOUISIANA WEATHER ROUNDUP
NATIONAL WEATHER SERVICE NEW ORLEANS LA
300 PM CDT THU SEP 18 2014

NOTE: "FAIR" INDICATES FEW OR NO CLOUDS BELOW 12,000 FEET WITH NO
      SIGNIFICANT WEATHER AND/OR OBSTRUCTIONS TO VISIBILITY.
      SKY/WX - SKY CONDITION AND SIGNIFICANT WEATHER.
      TMP - AIR TEMPERATURE.    DP   - DEWPOINT TEMPERATURE.
      RH  - RELATIVE HUMIDITY.  PRES - PRESSURE.
      HX  - HEAT INDEX.         WCI  - WIND CHILL INDEX.

*  THESE STATIONS ARE NOT NWS OR FAA STATIONS AND ARE NOT UNDER
   NWS QUALITY CONTROL.

LAZ040-048-061>063-065-066-069-182100-
SOUTHEAST LOUISIANA

CITY           SKY/WX    TMP DP  RH WIND       PRES   REMARKS
N.O. AUDUBON     N/A     87  76  69 MISG        N/A  HX  97
N.O. INTL ARPT CLOUDY    87  73  62 S12       29.88F
N.O. LAKEFRONT CLOUDY    86  73  65 E7        29.89F
N.O. DOWNTOWN* FAIR      88  72  58 SE9       29.89F
SLIDELL        CLOUDY    86  71  60 SE6       29.89F
BATON ROUGE    CLOUDY    85  73  67 E7        29.89F
BOOTHVILLE     CLOUDY    84  75  74 S12       29.90F
BELLE CHASSE   CLOUDY    87  71  58 SE8       29.88F
BOGALUSA*      FAIR      86  73  63 CALM      29.91F
GALLIANO*      NOT AVBL
NEW ROADS*     FAIR      84  72  66 E5        29.89F
GONZALES*      CLOUDY    86  76  71 CALM      29.88F HX  96
HAMMOND*       CLOUDY    86  68  54 SE6       29.91F
HOUMA*         PTSUNNY   84  57  39 SE6       29.89F
PORT FOURCHON* PTCLDY    84  75  74 VRB6      29.92F

$$

LAZ041-044-053-054-182100-
SOUTHWEST LOUISIANA

CITY           SKY/WX    TMP DP  RH WIND       PRES   REMARKS
LAKE CHARLES   LGT RAIN  80  74  81 E8        29.88F
LAFAYETTE      CLOUDY    84  75  74 NE5       29.89F
PATTERSON      PTSUNNY   84  75  74 S3        29.92F
SALT POINT       N/A     86  76  71 CALM      29.88F HX  96
NEW IBERIA     CLOUDY    84  74  71 SE3       29.89F
CHENAULT AIRPK PTSUNNY   81  75  83 VRB6      29.89F

$$

LAZ027-028-182100-
CENTRAL LOUISIANA

CITY           SKY/WX    TMP DP  RH WIND       PRES   REMARKS
FORT POLK      LGT RAIN  77  74  90 CALM      29.90F
ALEXANDRIA INT PTSUNNY   85  73  67 SW8       29.87F
ALEXANDRIA     CLOUDY    86  74  67 VRB3      29.89F

$$

LAZ001-002-182100-
NORTHWEST LOUISIANA

CITY           SKY/WX    TMP DP  RH WIND       PRES   REMARKS
SHREVEPORT     CLOUDY    89  71  55 NE7       29.88F HX  95
BARKSDALE AFB  CLOUDY    84  70  63 VRB7      29.90F
DTN SHREVEPORT CLOUDY    84  72  67 E3        29.89F

$$

LAZ014-016-182100-
NORTHEAST LOUISIANA

CITY           SKY/WX    TMP DP  RH WIND       PRES   REMARKS
MONROE         CLOUDY    85  73  67 SW8       29.89F
TALLULAH       CLOUDY    87  72  60 S6        29.88F

$$




USA.gov is the U.S. government's official web portal to all federal, state and local government web resources and services.